Location: Bacharowice
(49.9333°N, 19.5833°E)
Time: 12:22:34
(UTC+00:00)

USA 305 - Pass Details

Date: 11 May 2021
Orbit: 567 x 573 km, 54.0° (Epoch: 07 May)

Event Time Altitude Azimuth Distance (km) Brightness Sun altitude
Rises 18:43:24 0° 290° (WNW) 2,772 8.3 -4.6°
Reaches altitude 10° 18:45:41 10° 294° (WNW) 1,875 7.3 -4.9°
Maximum altitude 18:49:54 60° 15° (NNE) 656 3.4 -5.5°
Drops below altitude 10° 18:54:08 10° 96° (E) 1,874 5.0 -6.0°
Enters shadow 18:55:19 - 99° (E) 2,341 5.5 -6.2°
